Regional Weather Roundup
Issued by NWS

Home | Current Version | Previous Version | Graphics & Text | Print | Product List | Glossary On
Versions: 1 2 3 4 5 6 7 8 9 10 11 12 13 14 15 16 17 18 19 20 21 22 23 24 25 26 27 28 29 30 31 32 33 34 35 36 37 38 39 40 41 42 43 44 45 46 47
000
ASUS43 KDMX 291507
RWRIA

WEATHER ROUNDUP FOR IOWA
NATIONAL WEATHER SERVICE DES MOINES IA
1000 AM CDT WED JUL 29 2015

NOTE: "FAIR" INDICATES FEW OR NO CLOUDS BELOW 12,000 FEET WITH NO
SIGNIFICANT WEATHER AND/OR OBSTRUCTIONS TO VISIBILITY.

* - THESE STATIONS ARE NOT NWS STATIONS...THUS NOT UNDER NWS
QUALITY CONTROL.  THEY ALSO DO NOT REPORT WEATHER SUCH
AS PRECIPITATION OR FOG.

IAZ001>003-012>014-020>022-031>034-043>046-291600-
   NORTHWEST IOWA

CITY           SKY/WX    TMP DP  RH WIND       PRES   REMARKS
CARROLL *      SUNNY     72  61  68 W7        30.14S
CHEROKEE *     SUNNY     72  61  68 W7        30.15R
DENISON *      SUNNY     72  66  83 SW5       30.15S
LE MARS *      SUNNY     73  59  60 W8        30.16R
ORANGE CITY *  SUNNY     72  57  60 W10G17    30.15R
SHELDON *      SUNNY     72  57  60 W14G23    30.12S
SIOUX CITY     SUNNY     73  61  65 SW8       30.16R
SPENCER        SUNNY     74  55  51 W14G21    30.12S
STORM LAKE *   SUNNY     73  59  60 W10       30.16R
$$

IAZ055>058-069>071-079>083-090>094-291600-
   SOUTHWEST IOWA

CITY           SKY/WX    TMP DP  RH WIND       PRES   REMARKS
ATLANTIC *     SUNNY     75  64  69 W3        30.16S
AUDUBON *      SUNNY     75  61  60 NW5       30.17R
CLARINDA *     SUNNY     77  68  73 N8        30.17R
COUNCIL BLFS * SUNNY     75  64  69 NW3       30.19R
CRESTON *      SUNNY     75  63  64 N10       30.15S
HARLAN  *      SUNNY     75  68  78 VRB3      30.20S
LAMONI           N/A    N/A N/A N/A MISG      30.12S
RED OAK *      SUNNY     73  66  78 VRB5      30.17S
SHENANDOAH *   SUNNY     75  68  78 CALM      30.17R
$$

IAZ047>049-059>061-072>074-084-291600-
   CENTRAL IOWA

CITY           SKY/WX    TMP DP  RH WIND       PRES   REMARKS
AMES           SUNNY     75  56  51 NW12      30.11R
ANKENY *       SUNNY     77  59  53 NW10      30.11S
CHARITON *     SUNNY     75  66  73 NW9G16    30.12S
DES MOINES     PTSUNNY   79  59  50 NW7       30.11S HX  80
GRINNELL*      SUNNY     75  61  60 NW8       30.10S
KNOXVILLE *    SUNNY     75  63  64 NW9       30.10S
MARSHALLTOWN     N/A    N/A N/A N/A MISG      30.09R
PELLA *        SUNNY     77  66  69 NW8       30.11S
PERRY *          N/A     48  37  66 NW8       30.14R
$$

IAZ004>006-015-016-023>025-035-036-291600-
   NORTH CENTRAL IOWA

CITY           SKY/WX    TMP DP  RH WIND       PRES   REMARKS
ALGONA *       SUNNY     73  57  56 W13G20    30.11S
CLARION *      SUNNY     73  57  56 W15       30.09F
ESTHERVILLE    SUNNY     71  55  56 W13G18    30.09F
FORT DODGE *   SUNNY     73  59  60 W10       30.12S
MASON CITY     SUNNY     76  57  51 W17       30.08S
FOREST CITY *  SUNNY     72  52  49 W12G18    30.08S
IOWA FALLS *     N/A     73  55  53 W14       30.10R
$$

IAZ007>011-017>019-026>030-037>042-050>054-066-291600-
   NORTHEAST IOWA

CITY           SKY/WX    TMP DP  RH WIND       PRES   REMARKS
CEDAR RAPIDS   MOSUNNY   75  62  64 NW12      30.06S
CHARLES CITY * SUNNY     73  57  56 W12G20    30.06R
CLINTON *      MOSUNNY   75  63  64 NW9       30.06S
DECORAH *      SUNNY     73  54  49 W8G14     30.03R
DUBUQUE        MOSUNNY   76  58  53 NW9       30.05R
MONTICELLO *   SUNNY     77  61  57 NW10      30.04S
OELWEIN *      SUNNY     75  57  53 NW12G21   30.07R
WATERLOO       SUNNY     75  55  49 NW10G21   30.06R
$$

IAZ064-065-067-068-078-291600-
   EAST CENTRAL IOWA

CITY           SKY/WX    TMP DP  RH WIND       PRES   REMARKS
DAVENPORT      PTSUNNY   78  66  66 N9        30.06R HX  80
IOWA CITY      MOSUNNY   78  61  55 N9        30.07R HX  80
MT. PLEASANT * MOSUNNY   81  63  54 N10G16    30.08R HX  82
MUSCATINE *    SUNNY     79  66  65 N9G16     30.06R HX  81
QUAD CITIES    PTSUNNY   80  64  58 NW12      30.04R HX  82
$$

IAZ062-063-075>077-085>089-095>099-291600-
   SOUTHEAST IOWA

CITY           SKY/WX    TMP DP  RH WIND       PRES   REMARKS
BURLINGTON     MOSUNNY   79  66  64 N15       30.06R HX  81
FAIRFIELD *    SUNNY     77  66  69 N9        30.09R
FORT MADISON * SUNNY     79  70  73 N9        30.08R HX  81
KEOKUK *       SUNNY     79  68  69 N12       30.07R HX  81
OSKALOOSA *      N/A     77  64  65 N5        30.10R
CENTERVILLE *  SUNNY     77  68  73 NW9       30.12R
OTTUMWA        MOSUNNY   77  66  68 N12       30.08R
WASHINGTON *   SUNNY     77  64  65 N9        30.09R
$$

ABBREVIATIONS USED IN REMARKS
   TC - TEMPERATURES IN CELSIUS
  WCI - WIND CHILL INDEX
   HX - HEAT INDEX
  VSB - VISIBILITY
$$



USA.gov is the U.S. government's official web portal to all federal, state and local government web resources and services.